| time (UTC) | temp F | wind direction | speed knots | gust knots | rain 1hr in | rain 24hr in | rain mn in | humidity % | barometer mb |
| 20260506172848 | 48 | 58 | 4.3 | 9.6 | 0.00 | 0.00 | 0.00 | 69 | 1015.5 |
| 20260506172331 | 48 | 71 | 4.3 | 9.6 | 0.00 | 0.00 | 0.00 | 68 | 1015.6 |
| 20260506171832 | 48 | 358 | 4.3 | 9.6 | 0.00 | 0.00 | 0.00 | 67 | 1015.6 |
| 20260506171329 | 48 | 79 | 3.5 | 9.6 | 0.00 | 0.00 | 0.00 | 67 | 1015.7 |
| 20260506170829 | 49 | 39 | 5.2 | 11.3 | 0.00 | 0.00 | 0.00 | 68 | 1015.8 |
| 20260506170346 | 49 | 23 | 5.2 | 11.3 | 0.00 | 0.00 | 0.00 | 68 | 1015.8 |
| 20260506165830 | 49 | 30 | 5.2 | 11.3 | 0.00 | 0.00 | 0.00 | 67 | 1015.8 |
| 20260506165331 | 49 | 37 | 4.3 | 12.2 | 0.00 | 0.00 | 0.00 | 67 | 1015.8 |
| 20260506164830 | 49 | 82 | 5.2 | 12.2 | 0.00 | 0.00 | 0.00 | 67 | 1015.8 |
| 20260506164329 | 49 | 44 | 5.2 | 9.6 | 0.00 | 0.00 | 0.00 | 66 | 1015.7 |
| 20260506163328 | 49 | 0 | 4.3 | 12.2 | 0.00 | 0.00 | 0.00 | 65 | 1015.8 |
| 20260506162830 | 49 | 24 | 6.1 | 12.2 | 0.00 | 0.00 | 0.00 | 66 | 1015.8 |
| 20260506161830 | 49 | 8 | 5.2 | 10.4 | 0.00 | 0.00 | 0.00 | 64 | 1015.8 |
| 20260506161330 | 50 | 38 | 5.2 | 13.0 | 0.00 | 0.00 | 0.00 | 64 | 1015.9 |
| 20260506160828 | 50 | 27 | 7.8 | 13.0 | 0.00 | 0.00 | 0.00 | 66 | 1015.8 |
| 20260506154329 | 50 | 39 | 5.2 | 12.2 | 0.00 | 0.00 | 0.00 | 62 | 1015.9 |
| 20260506153828 | 50 | 1 | 4.3 | 13.9 | 0.00 | 0.00 | 0.00 | 61 | 1015.9 |
| 20260506153329 | 50 | 65 | 4.3 | 13.9 | 0.00 | 0.00 | 0.00 | 61 | 1015.9 |
| 20260506152829 | 51 | 49 | 6.1 | 13.9 | 0.00 | 0.00 | 0.00 | 61 | 1015.9 |
| 20260506152330 | 51 | 20 | 6.1 | 13.9 | 0.00 | 0.00 | 0.00 | 61 | 1015.8 |
| 20260506151830 | 51 | 18 | 7.0 | 12.2 | 0.00 | 0.00 | 0.00 | 60 | 1015.9 |
| 20260506151331 | 49 | 38 | 6.1 | 12.2 | 0.00 | 0.00 | 0.00 | 61 | 1016.0 |
| 20260506150830 | 49 | 0 | 4.3 | 9.6 | 0.00 | 0.00 | 0.00 | 61 | 1015.9 |
| 20260506150330 | 49 | 358 | 6.1 | 9.6 | 0.00 | 0.00 | 0.00 | 61 | 1015.9 |
| 20260506145830 | 49 | 68 | 3.5 | 11.3 | 0.00 | 0.00 | 0.00 | 62 | 1015.8 |
| 20260506145330 | 49 | 10 | 5.2 | 11.3 | 0.00 | 0.00 | 0.00 | 62 | 1015.8 |
| 20260506144329 | 49 | 32 | 7.0 | 11.3 | 0.00 | 0.00 | 0.00 | 62 | 1015.8 |
| 20260506143329 | 50 | 21 | 7.0 | 12.2 | 0.00 | 0.00 | 0.00 | 62 | 1016.0 |
| 20260506142831 | 51 | 55 | 4.3 | 12.2 | 0.00 | 0.00 | 0.00 | 62 | 1015.9 |
| 20260506142330 | 51 | 17 | 4.3 | 13.0 | 0.00 | 0.00 | 0.00 | 62 | 1015.9 |
| 20260506141829 | 51 | 75 | 5.2 | 13.0 | 0.00 | 0.00 | 0.00 | 62 | 1015.9 |
| 20260506141330 | 51 | 21 | 7.0 | 12.2 | 0.00 | 0.00 | 0.00 | 61 | 1015.9 |
| 20260506140828 | 52 | 82 | 4.3 | 11.3 | 0.00 | 0.00 | 0.00 | 62 | 1015.9 |
| 20260506140329 | 51 | 44 | 5.2 | 11.3 | 0.00 | 0.00 | 0.00 | 63 | 1015.9 |
| 20260506135828 | 51 | 47 | 4.3 | 10.4 | 0.00 | 0.00 | 0.00 | 63 | 1016.0 |
| 20260506135330 | 50 | 14 | 4.3 | 12.2 | 0.00 | 0.00 | 0.00 | 63 | 1015.9 |
| 20260506134828 | 50 | 0 | 6.1 | 12.2 | 0.00 | 0.00 | 0.00 | 62 | 1016.0 |
| 20260506134329 | 51 | 10 | 6.1 | 12.2 | 0.00 | 0.00 | 0.00 | 62 | 1015.9 |
| 20260506133830 | 50 | 4 | 5.2 | 10.4 | 0.00 | 0.00 | 0.00 | 63 | 1016.0 |
| 20260506132829 | 50 | 31 | 5.2 | 11.3 | 0.00 | 0.00 | 0.00 | 62 | 1016.0 |
| 20260506132330 | 50 | 61 | 7.0 | 11.3 | 0.00 | 0.00 | 0.00 | 62 | 1016.0 |
| 20260506131829 | 50 | 314 | 5.2 | 12.2 | 0.00 | 0.00 | 0.00 | 65 | 1016.1 |
| 20260506131328 | 50 | 7 | 5.2 | 12.2 | 0.00 | 0.00 | 0.00 | 64 | 1016.1 |
| 20260506130830 | 49 | 23 | 2.6 | 10.4 | 0.00 | 0.00 | 0.00 | 64 | 1016.0 |
| 20260506125831 | 49 | 63 | 5.2 | 10.4 | 0.00 | 0.00 | 0.00 | 62 | 1015.9 |
| 20260506125331 | 49 | 48 | 4.3 | 10.4 | 0.00 | 0.00 | 0.00 | 63 | 1016.0 |
| 20260506124829 | 49 | 25 | 3.5 | 11.3 | 0.00 | 0.00 | 0.00 | 61 | 1016.0 |
| 20260506124328 | 49 | 3 | 7.0 | 11.3 | 0.00 | 0.00 | 0.00 | 60 | 1016.0 |
| 20260506123828 | 49 | 39 | 7.0 | 11.3 | 0.00 | 0.00 | 0.00 | 60 | 1016.0 |
| 20260506123329 | 49 | 25 | 6.1 | 10.4 | 0.00 | 0.00 | 0.00 | 60 | 1016.0 |
| 20260506122829 | 50 | 10 | 5.2 | 10.4 | 0.00 | 0.00 | 0.00 | 58 | 1016.0 |
| 20260506122331 | 50 | 7 | 5.2 | 12.2 | 0.00 | 0.00 | 0.00 | 61 | 1016.0 |
| 20260506121829 | 50 | 54 | 7.0 | 12.2 | 0.00 | 0.00 | 0.00 | 62 | 1016.0 |
| 20260506121329 | 50 | 16 | 5.2 | 10.4 | 0.00 | 0.00 | 0.00 | 62 | 1016.0 |
| 20260506120829 | 50 | 4 | 5.2 | 11.3 | 0.00 | 0.00 | 0.00 | 62 | 1016.0 |
| 20260506120329 | 50 | 0 | 6.1 | 12.2 | 0.00 | 0.00 | 0.00 | 62 | 1016.1 |
| 20260506115828 | 51 | 21 | 5.2 | 12.2 | 0.00 | 0.00 | 0.00 | 60 | 1016.1 |
| 20260506114829 | 51 | 32 | 4.3 | 12.2 | 0.00 | 0.00 | 0.00 | 62 | 1016.0 |
| 20260506114330 | 52 | 0 | 7.8 | 13.0 | 0.00 | 0.00 | 0.00 | 62 | 1016.0 |
| 20260506113830 | 51 | 16 | 7.0 | 14.8 | 0.00 | 0.00 | 0.00 | 62 | 1016.1 |
| 20260506113330 | 51 | 44 | 6.1 | 14.8 | 0.00 | 0.00 | 0.00 | 64 | 1016.1 |
| 20260506112829 | 49 | 6 | 5.2 | 11.3 | 0.00 | 0.00 | 0.00 | 61 | 1016.1 |
| 20260506112329 | 49 | 18 | 3.5 | 11.3 | 0.00 | 0.00 | 0.00 | 62 | 1016.2 |
| 20260506111829 | 49 | 0 | 6.1 | 10.4 | 0.00 | 0.00 | 0.00 | 62 | 1016.3 |
| 20260506111331 | 50 | 55 | 2.6 | 11.3 | 0.00 | 0.00 | 0.00 | 62 | 1016.3 |
| 20260506110829 | 50 | 18 | 6.1 | 11.3 | 0.00 | 0.00 | 0.00 | 62 | 1016.3 |
| 20260506110330 | 50 | 4 | 5.2 | 11.3 | 0.00 | 0.00 | 0.00 | 62 | 1016.3 |
| 20260506105828 | 49 | 18 | 4.3 | 12.2 | 0.00 | 0.00 | 0.00 | 63 | 1016.2 |
| 20260506105328 | 49 | 350 | 7.0 | 13.0 | 0.00 | 0.00 | 0.00 | 63 | 1016.2 |
| 20260506104829 | 50 | 18 | 6.1 | 13.0 | 0.00 | 0.00 | 0.00 | 61 | 1016.3 |
| 20260506103330 | 49 | 41 | 6.1 | 12.2 | 0.00 | 0.00 | 0.00 | 67 | 1016.3 |
| 20260506102830 | 47 | 96 | 6.1 | 11.3 | 0.00 | 0.00 | 0.00 | 67 | 1016.3 |
| 20260506101830 | 47 | 14 | 6.1 | 11.3 | 0.00 | 0.00 | 0.00 | 67 | 1016.3 |
| 20260506095828 | 47 | 16 | 6.1 | 13.9 | 0.00 | 0.00 | 0.00 | 67 | 1016.3 |
| 20260506094330 | 47 | 354 | 5.2 | 14.8 | 0.00 | 0.00 | 0.00 | 69 | 1016.3 |
| 20260506093828 | 47 | 34 | 7.0 | 14.8 | 0.00 | 0.00 | 0.00 | 69 | 1016.4 |
| 20260506092828 | 49 | 6 | 7.8 | 14.8 | 0.00 | 0.00 | 0.00 | 66 | 1016.3 |
| 20260506092328 | 49 | 0 | 7.8 | 14.8 | 0.00 | 0.00 | 0.00 | 66 | 1016.3 |
| 20260506091830 | 49 | 7 | 7.8 | 13.9 | 0.00 | 0.00 | 0.00 | 67 | 1016.3 |
| 20260506091328 | 49 | 0 | 6.1 | 13.9 | 0.00 | 0.00 | 0.00 | 64 | 1016.3 |
| 20260506090829 | 49 | 20 | 8.7 | 13.9 | 0.00 | 0.00 | 0.00 | 64 | 1016.4 |
| 20260506090330 | 48 | 347 | 7.0 | 13.0 | 0.00 | 0.00 | 0.00 | 63 | 1016.4 |
| 20260506085828 | 49 | 333 | 5.2 | 10.4 | 0.00 | 0.00 | 0.00 | 63 | 1016.3 |
| 20260506085328 | 49 | 61 | 4.3 | 11.3 | 0.00 | 0.00 | 0.00 | 65 | 1016.3 |
| 20260506084828 | 48 | 10 | 7.0 | 13.0 | 0.00 | 0.00 | 0.00 | 65 | 1016.3 |
| 20260506084329 | 48 | 16 | 6.1 | 13.0 | 0.00 | 0.00 | 0.00 | 65 | 1016.3 |
| 20260506083828 | 47 | 0 | 7.0 | 12.2 | 0.00 | 0.00 | 0.00 | 67 | 1016.4 |
| 20260506083329 | 46 | 28 | 5.2 | 13.0 | 0.00 | 0.00 | 0.00 | 68 | 1016.4 |
| 20260506082829 | 46 | 10 | 7.0 | 13.0 | 0.00 | 0.00 | 0.00 | 67 | 1016.3 |
| 20260506082328 | 46 | 66 | 6.1 | 11.3 | 0.00 | 0.00 | 0.00 | 67 | 1016.2 |
| 20260506081828 | 46 | 27 | 4.3 | 13.9 | 0.00 | 0.00 | 0.00 | 68 | 1016.3 |
| 20260506081330 | 45 | 63 | 6.1 | 13.9 | 0.00 | 0.00 | 0.00 | 70 | 1016.4 |
| 20260506080829 | 45 | 3 | 7.8 | 12.2 | 0.00 | 0.00 | 0.00 | 69 | 1016.3 |
| 20260506080329 | 45 | 7 | 4.3 | 13.0 | 0.00 | 0.00 | 0.00 | 69 | 1016.2 |
| 20260506073327 | 45 | 34 | 7.0 | 12.2 | 0.00 | 0.00 | 0.00 | 74 | 1016.1 |
| 20260506072808 | 45 | 351 | 5.2 | 12.2 | 0.00 | 0.00 | 0.00 | 73 | 1016.1 |
| 20260506072301 | 45 | 0 | 5.2 | 12.2 | 0.00 | 0.00 | 0.00 | 72 | 1016.0 |
| 20260506071801 | 45 | 1 | 5.2 | 11.3 | 0.00 | 0.00 | 0.00 | 74 | 1016.0 |
| 20260506071301 | 44 | 17 | 7.0 | 12.2 | 0.00 | 0.00 | 0.00 | 76 | 1015.9 |
| 20260506070803 | 44 | 1 | 7.0 | 12.2 | 0.00 | 0.00 | 0.00 | 80 | 1015.9 |
| 20260506070304 | 43 | 72 | 7.8 | 12.2 | 0.00 | 0.00 | 0.00 | 80 | 1016.0 |
| 20260506062305 | 40 | 188 | 1.7 | 4.3 | 0.00 | 0.00 | 0.00 | 90 | 1015.7 |
| 20260506061801 | 40 | 254 | 1.7 | 4.3 | 0.00 | 0.00 | 0.00 | 90 | 1015.8 |
| 20260506061303 | 40 | 254 | 1.7 | 4.3 | 0.00 | 0.00 | 0.00 | 90 | 1015.6 |
| 20260506060804 | 40 | 264 | 1.7 | 6.1 | 0.00 | 0.00 | 0.00 | 90 | 1015.7 |
| 20260506060303 | 40 | 254 | 2.6 | 10.4 | 0.00 | 0.00 | 0.00 | 91 | 1015.6 |
| 20260506051228 | 37 | 306 | 1.7 | 4.3 | 0.00 | 0.00 | 0.00 | 90 | 1015.7 |
| 20260506050728 | 37 | 288 | 0.9 | 4.3 | 0.00 | 0.00 | 0.00 | 90 | 1015.6 |
| 20260506050229 | 37 | 189 | 1.7 | 7.0 | 0.00 | 0.00 | 0.00 | 90 | 1015.8 |
| 20260506044229 | 38 | 251 | 1.7 | 5.2 | 0.00 | 0.00 | 0.00 | 88 | 1015.6 |
| 20260506043229 | 38 | 251 | 2.6 | 5.2 | 0.00 | 0.00 | 0.00 | 89 | 1015.6 |
| 20260506042730 | 39 | 272 | 1.7 | 4.3 | 0.00 | 0.00 | 0.00 | 89 | 1015.6 |
| 20260506042228 | 39 | 289 | 0.9 | 3.5 | 0.00 | 0.00 | 0.00 | 89 | 1015.6 |
| 20260506041728 | 39 | 69 | 0.0 | 1.7 | 0.00 | 0.00 | 0.00 | 89 | 1015.6 |
| 20260506041227 | 40 | 69 | 0.0 | 2.6 | 0.00 | 0.00 | 0.00 | 89 | 1015.6 |
| 20260506040727 | 40 | 69 | 0.0 | 2.6 | 0.00 | 0.00 | 0.00 | 89 | 1015.5 |
| 20260506035728 | 40 | 30 | 0.9 | 4.3 | 0.00 | 0.00 | 0.00 | 89 | 1015.6 |
| 20260506035228 | 40 | 135 | 1.7 | 4.3 | 0.00 | 0.00 | 0.00 | 89 | 1015.6 |
| 20260506034730 | 40 | 31 | 0.0 | 3.5 | 0.00 | 0.00 | 0.00 | 89 | 1015.6 |
| 20260506034230 | 40 | 0 | 0.9 | 3.5 | 0.00 | 0.00 | 0.00 | 89 | 1015.7 |
| 20260506033729 | 40 | 25 | 0.9 | 4.3 | 0.00 | 0.00 | 0.00 | 88 | 1015.6 |
| 20260506032729 | 40 | 18 | 0.0 | 2.6 | 0.00 | 0.00 | 0.00 | 87 | 1015.7 |
| 20260506032229 | 40 | 18 | 0.0 | 2.6 | 0.00 | 0.00 | 0.00 | 87 | 1015.7 |
| 20260506031727 | 40 | 18 | 0.0 | 2.6 | 0.00 | 0.00 | 0.00 | 87 | 1015.8 |
| 20260506031227 | 40 | 18 | 0.0 | 2.6 | 0.00 | 0.00 | 0.00 | 87 | 1015.7 |
| 20260506030728 | 40 | 18 | 0.0 | 4.3 | 0.00 | 0.00 | 0.00 | 87 | 1015.7 |
| 20260506025729 | 40 | 14 | 1.7 | 5.2 | 0.00 | 0.00 | 0.00 | 87 | 1015.7 |
| 20260506025229 | 40 | 4 | 1.7 | 5.2 | 0.00 | 0.00 | 0.00 | 87 | 1015.7 |
| 20260506023727 | 40 | 354 | 3.5 | 7.0 | 0.00 | 0.00 | 0.00 | 86 | 1015.7 |
| 20260506023229 | 40 | 7 | 1.7 | 6.1 | 0.00 | 0.00 | 0.00 | 86 | 1015.7 |
| 20260506022236 | 40 | 0 | 1.7 | 5.2 | 0.00 | 0.00 | 0.00 | 85 | 1015.7 |
| 20260506021728 | 40 | 0 | 2.6 | 6.1 | 0.00 | 0.00 | 0.00 | 85 | 1015.8 |
| 20260506021229 | 40 | 0 | 3.5 | 7.0 | 0.00 | 0.00 | 0.00 | 85 | 1015.8 |
| 20260506020230 | 40 | 353 | 3.5 | 7.0 | 0.00 | 0.00 | 0.00 | 86 | 1015.7 |
| 20260506015730 | 40 | 337 | 3.5 | 7.0 | 0.00 | 0.00 | 0.00 | 86 | 1015.8 |
| 20260506015227 | 40 | 25 | 4.3 | 7.0 | 0.00 | 0.00 | 0.00 | 86 | 1015.8 |
| 20260506014729 | 41 | 11 | 1.7 | 9.6 | 0.00 | 0.00 | 0.00 | 86 | 1015.9 |
| 20260506013730 | 41 | 10 | 3.5 | 7.8 | 0.00 | 0.00 | 0.00 | 86 | 1015.8 |
| 20260506013228 | 41 | 10 | 3.5 | 7.0 | 0.00 | 0.00 | 0.00 | 85 | 1015.8 |
| 20260506012228 | 41 | 13 | 3.5 | 7.0 | 0.00 | 0.00 | 0.00 | 84 | 1015.8 |
| 20260506011727 | 41 | 0 | 2.6 | 7.0 | 0.00 | 0.00 | 0.00 | 83 | 1015.8 |
| 20260506011229 | 42 | 24 | 2.6 | 5.2 | 0.00 | 0.00 | 0.00 | 82 | 1015.9 |
| 20260506010728 | 42 | 35 | 2.6 | 5.2 | 0.00 | 0.00 | 0.00 | 82 | 1015.9 |
| 20260506010227 | 42 | 27 | 1.7 | 10.4 | 0.00 | 0.00 | 0.00 | 82 | 1015.8 |
| 20260506005729 | 42 | 27 | 3.5 | 10.4 | 0.00 | 0.00 | 0.00 | 82 | 1015.8 |
| 20260506005229 | 42 | 10 | 5.2 | 9.6 | 0.00 | 0.00 | 0.00 | 81 | 1015.9 |
| 20260506004227 | 42 | 0 | 5.2 | 9.6 | 0.00 | 0.00 | 0.00 | 81 | 1016.0 |
| 20260506003727 | 42 | 24 | 4.3 | 7.8 | 0.00 | 0.00 | 0.00 | 81 | 1016.0 |
| 20260506003230 | 42 | 13 | 4.3 | 7.8 | 0.00 | 0.00 | 0.00 | 82 | 1016.1 |
| 20260506002728 | 42 | 0 | 4.3 | 10.4 | 0.00 | 0.00 | 0.00 | 82 | 1016.0 |
| 20260506002229 | 42 | 358 | 6.1 | 10.4 | 0.00 | 0.00 | 0.00 | 82 | 1016.1 |
| 20260506001729 | 42 | 354 | 5.2 | 10.4 | 0.00 | 0.00 | 0.00 | 82 | 1016.1 |
| 20260506000727 | 42 | 0 | 6.1 | 9.6 | 0.00 | 0.00 | 0.00 | 83 | 1016.1 |
| 20260506000229 | 42 | 0 | 4.3 | 7.8 | 0.00 | 0.00 | 0.00 | 83 | 1016.1 |
| 20260505235727 | 42 | 16 | 2.6 | 7.8 | 0.00 | 0.00 | 0.00 | 83 | 1016.1 |
| 20260505235227 | 42 | 11 | 2.6 | 7.8 | 0.00 | 0.00 | 0.00 | 83 | 1016.1 |
| 20260505234229 | 42 | 6 | 3.5 | 7.0 | 0.00 | 0.00 | 0.00 | 83 | 1016.1 |
| 20260505233729 | 42 | 4 | 3.5 | 7.0 | 0.00 | 0.00 | 0.00 | 83 | 1016.2 |
| 20260505233228 | 42 | 16 | 1.7 | 7.0 | 0.00 | 0.00 | 0.00 | 82 | 1016.2 |
| 20260505232230 | 42 | 1 | 1.7 | 5.2 | 0.00 | 0.00 | 0.00 | 82 | 1016.2 |
| 20260505231729 | 42 | 20 | 2.6 | 7.0 | 0.00 | 0.00 | 0.00 | 82 | 1016.4 |
| 20260505231230 | 42 | 0 | 3.5 | 7.0 | 0.00 | 0.00 | 0.00 | 82 | 1016.3 |
| 20260505230730 | 42 | 8 | 3.5 | 7.0 | 0.00 | 0.00 | 0.00 | 82 | 1016.4 |
| 20260505230227 | 42 | 20 | 2.6 | 7.8 | 0.00 | 0.00 | 0.00 | 82 | 1016.4 |
| 20260505225727 | 42 | 17 | 4.3 | 7.8 | 0.00 | 0.00 | 0.00 | 82 | 1016.6 |
| 20260505224727 | 42 | 3 | 4.3 | 9.6 | 0.00 | 0.00 | 0.00 | 82 | 1016.4 |
| 20260505224229 | 42 | 13 | 3.5 | 9.6 | 0.00 | 0.00 | 0.00 | 81 | 1016.4 |
| 20260505223730 | 43 | 8 | 3.5 | 10.4 | 0.00 | 0.00 | 0.00 | 81 | 1016.3 |
| 20260505223227 | 43 | 16 | 6.1 | 10.4 | 0.00 | 0.00 | 0.00 | 82 | 1016.4 |
| 20260505222729 | 43 | 20 | 6.1 | 10.4 | 0.00 | 0.00 | 0.00 | 82 | 1016.4 |
| 20260505222228 | 43 | 17 | 3.5 | 7.0 | 0.00 | 0.00 | 0.00 | 82 | 1016.4 |
| 20260505221229 | 43 | 11 | 3.5 | 9.6 | 0.00 | 0.00 | 0.00 | 81 | 1016.4 |
| 20260505220728 | 43 | 21 | 5.2 | 9.6 | 0.00 | 0.00 | 0.00 | 81 | 1016.6 |
| 20260505220230 | 44 | 10 | 5.2 | 9.6 | 0.00 | 0.00 | 0.00 | 82 | 1016.4 |
| 20260505215728 | 44 | 3 | 3.5 | 10.4 | 0.00 | 0.00 | 0.00 | 82 | 1016.6 |
| 20260505215229 | 44 | 20 | 5.2 | 10.4 | 0.00 | 0.00 | 0.00 | 82 | 1016.6 |
| 20260505214728 | 44 | 16 | 4.3 | 10.4 | 0.00 | 0.00 | 0.00 | 82 | 1016.4 |
| 20260505214228 | 44 | 11 | 3.5 | 10.4 | 0.00 | 0.00 | 0.00 | 81 | 1016.4 |
| 20260505213228 | 44 | 16 | 6.1 | 11.3 | 0.00 | 0.00 | 0.00 | 81 | 1016.4 |
| 20260505212728 | 44 | 347 | 5.2 | 10.4 | 0.00 | 0.00 | 0.00 | 82 | 1016.6 |
| 20260505211728 | 44 | 32 | 5.2 | 13.9 | 0.00 | 0.00 | 0.00 | 82 | 1016.7 |
| 20260505211227 | 44 | 23 | 7.8 | 13.9 | 0.00 | 0.00 | 0.00 | 82 | 1016.7 |
| 20260505210728 | 44 | 13 | 6.1 | 10.4 | 0.00 | 0.00 | 0.00 | 84 | 1016.8 |
| 20260505210229 | 44 | 18 | 4.3 | 11.3 | 0.00 | 0.00 | 0.00 | 84 | 1016.7 |
| 20260505205730 | 44 | 34 | 5.2 | 11.3 | 0.00 | 0.00 | 0.00 | 84 | 1016.7 |
| 20260505205228 | 44 | 59 | 6.1 | 11.3 | 0.00 | 0.00 | 0.00 | 84 | 1016.9 |
| 20260505204729 | 44 | 47 | 7.0 | 11.3 | 0.00 | 0.00 | 0.00 | 84 | 1016.8 |
| 20260505204228 | 44 | 47 | 3.5 | 9.6 | 0.00 | 0.00 | 0.00 | 84 | 1016.8 |
| 20260505203226 | 44 | 7 | 4.3 | 11.3 | 0.00 | 0.00 | 0.00 | 84 | 1016.7 |
| 20260505202730 | 44 | 25 | 5.2 | 12.2 | 0.00 | 0.00 | 0.00 | 84 | 1016.7 |
| 20260505202229 | 44 | 28 | 6.1 | 12.2 | 0.00 | 0.00 | 0.00 | 84 | 1016.7 |
| 20260505201728 | 44 | 14 | 6.1 | 12.2 | 0.00 | 0.00 | 0.00 | 85 | 1016.7 |
| 20260505201229 | 44 | 0 | 6.1 | 10.4 | 0.00 | 0.00 | 0.00 | 85 | 1016.7 |
| 20260505200727 | 44 | 47 | 3.5 | 9.6 | 0.00 | 0.00 | 0.00 | 85 | 1016.6 |
| 20260505200231 | 44 | 0 | 5.2 | 9.6 | 0.00 | 0.00 | 0.00 | 85 | 1016.6 |
| 20260505195727 | 44 | 4 | 6.1 | 13.0 | 0.00 | 0.00 | 0.00 | 85 | 1016.7 |
| 20260505194228 | 44 | 7 | 6.1 | 13.9 | 0.00 | 0.00 | 0.00 | 85 | 1016.6 |
| 20260505193228 | 45 | 28 | 8.7 | 13.9 | 0.00 | 0.00 | 0.00 | 85 | 1016.4 |
| 20260505192727 | 45 | 17 | 7.8 | 11.3 | 0.00 | 0.00 | 0.00 | 85 | 1016.3 |
| 20260505192229 | 45 | 16 | 6.1 | 12.2 | 0.00 | 0.00 | 0.00 | 86 | 1016.3 |
| 20260505191728 | 45 | 0 | 7.0 | 12.2 | 0.00 | 0.00 | 0.00 | 86 | 1016.2 |
| 20260505191227 | 45 | 25 | 5.2 | 13.9 | 0.00 | 0.00 | 0.00 | 86 | 1016.1 |
| 20260505190227 | 45 | 56 | 6.1 | 15.6 | 0.00 | 0.00 | 0.00 | 85 | 1016.1 |
| 20260505185227 | 45 | 7 | 7.0 | 15.6 | 0.00 | 0.00 | 0.00 | 85 | 1016.2 |
| 20260505184727 | 45 | 351 | 9.6 | 18.2 | 0.00 | 0.00 | 0.00 | 84 | 1016.1 |
| 20260505182728 | 46 | 41 | 7.8 | 17.4 | 0.00 | 0.00 | 0.00 | 84 | 1016.0 |
| 20260505182226 | 46 | 30 | 7.0 | 17.4 | 0.00 | 0.00 | 0.00 | 85 | 1015.9 |
| 20260505181229 | 46 | 14 | 8.7 | 16.5 | 0.00 | 0.00 | 0.00 | 85 | 1016.0 |
| 20260505180226 | 46 | 0 | 7.0 | 13.9 | 0.00 | 0.00 | 0.00 | 85 | 1016.0 |
| 20260505175228 | 46 | 1 | 8.7 | 13.0 | 0.00 | 0.00 | 0.00 | 84 | 1016.1 |
| 20260505174727 | 46 | 358 | 7.8 | 16.5 | 0.00 | 0.00 | 0.00 | 84 | 1016.1 |
| 20260505174228 | 46 | 0 | 7.8 | 16.5 | 0.00 | 0.00 | 0.00 | 84 | 1016.1 |